Starlink 1830

operational
NORAD ID: 46727 Int'l Des: 2020-073 Owner: SPXS Country: US Constellation: starlink
LEOCIRCULAR

About Starlink 1830

Description loading...

Live Position

Loading 3D Globe...

Upcoming Passes

Altitude History

Altitude vs Time

uPlot chart will show altitude changes over time

Two-Line Element Set

1 46727U 20073BK 26063.00001157 .00095558 00000-0 14587-2 0 9998
2 46727 53.0441 210.8794 0001202 112.8152 85.6938 15.53683005 5966
Epoch: Mar 4, 2026 • Age: 8 hours

Current Status

Altitude 422.5 km
Velocity 7.66 km/s
Sub-Earth Point -47.37°S, 162.68°E
Launch Date Oct 18, 2020
Age 5.3 years
Type internet

Technical Details

Classification Payload
Mass 260.00 kg
Dry Mass 248.00 kg
Total Mass 260.00 kg
Length 0.20 m
Diameter 2.80 m
Span 9.00 m
Shape Box + pan
Manufacturer SPXS
Bus Type Starlink
Phase Status In Orbit
Owner/State SPXS/US

Large Constellations

Loading constellations...